DELTA 1 DEB

Satellite information

Favourite Embed

Satellite Type and Status

DEBRISIN ORBIT

Key statistics

Satellite DELTA 1 DEB at a glance.

Uptime

18447

Days in orbit

Revolutions

≈ 13.6

Per day

Orbit

SSO

Sun Synchronous Orbit

Inclination

99.8

Latest

Satellite identification and parameters

Extended collection of information and parameters for DELTA 1 DEB.

Object identification

Identified? True

Debris? True

Object name: DELTA 1 DEB

International designator: 1975-052KB

Object number (NORAD): 26701

Object ID (CCSDS): 26701

Country: UNITED STATES OF AMERICA (US)

Current information (Y/N): Y

RCS size: SMALL

Orbital parameters

Period: 106.26 minutes

Inclination: 99.7764 deg

SMA: 7431.432 km

Apoapsis: 1245.914 km

Periapsis: 860.681 km

RAAN: 212.9561 deg

Eccentricy: 0.02591917

Argument of periapsis: 15.4939 deg

Mean anomaly: 137.0598 deg

Mean motion: 13.55170559 rev/day

Mean motion (dot): 0.00001075 rev/day2

B* drag term: 0.0013072202 1/REarth

Two-line elements (TLE)

Creation date: Dec. 12, 2025, 10:14 a.m.

Reference frame: TEME

Reference center: EARTH

Epoch: Dec. 12, 2025, 2:30 a.m. UTC

TLE line 0: 0 DELTA 1 DEB

TLE line 1: 1 26701U 75052KB 25346.10421853 .00001075 00000-0 13072-2 0 9997

TLE line 2: 2 26701 99.7764 212.9561 0259192 15.4939 137.0598 13.55170559236796

Live tracking on map

Real-time ground track for satellite DELTA 1 DEB.

In-orbit conjunctions

A list of the most updated potential collisions computed for object DELTA 1 DEB.

Target Orbit TCA Probability of collision Miss distance Type
THORAD AGENA D DEB SSO 2025-10-16 02:08:37 0.0001867665 92.0 (m) DEBRIS
CZ-6A DEB SSO 2024-11-17 08:56:54 0.0001007374 126.0 (m) DEBRIS
FENGYUN 1C DEB SSO 2024-08-24 22:00:09 0.0001009419 626.0 (m) DEBRIS

Associated space launch

Experimental meteorological satellite

DELTA 1 DEB was lifted into orbit during the mission ‘Delta 2910 | Nimbus 6’, on board a Delta 2910 space rocket.

The launch took place on June 12, 1975, 8:12 a.m. from Space Launch Complex 2W.

For more information about the launch, click the button.

Launch to space Delta 2910 | Nimbus 6
Delta 2910 | Nimbus 6

Agency: N/A

Status: Launch Successful

Launch date: June 12, 1975, 8:12 a.m. UTC

Rocket: Delta 2910

Launch pad: Space Launch Complex 2W

Location: Vandenberg SFB, CA, USA

...

Latest news about this satellite

There are no fresh news available about this satellite. Check back as we update our databases every day.


Newsletter sign-up

Weekly statistics, charts and insights to help you stay on top of the space industry.